[[{"header":{"parameterUnit":"m.s-1","parameterCategory":1,"la1":30.2991,"la2":30.254,"lo1":-89.0895,"lo2":-89.0444,"dy":0.0017,"dx":0.0017,"nx":28,"ny":28,"refTime":"2024-08-11T21:00:00:Z","depth":0,"parameterNumber":2,"parameterNumberName":"U-component_of_WINDS"},"data":[0,0,0,0,0,0,0,0,0,0,0,0,0,0,0,0,0,0,0,0,0,0,0,0,0,0,0,0,0,0,0,0,0,0,0,0,0,0,0,0,0,0,0,0,0,0,0,0,0,0,0,0,0,0,0,0,0,0,2.6575,2.6576,0,2.671,2.6712,2.6713,2.6647,2.6643,2.664,2.6636,2.6782,2.6789,2.6796,0,0,0,0,0,0,0,0,0,0,0,0,0,2.6263,2.6269,2.6575,2.6576,2.6578,2.671,2.6712,2.6714,2.6647,2.6643,2.6639,2.6635,2.6779,2.6788,2.6796,0,0,0,0,0,0,0,0,0,0,0,0,0,2.6398,2.6271,2.6574,2.6561,2.6561,2.671,2.6712,2.6714,2.6648,2.6643,2.6638,2.6633,2.6777,2.6787,2.6798,2.697,0,0,2.683,2.6835,0,0,0,0,0,0,0,0,2.6391,2.641,2.6561,2.6562,2.6562,2.6656,2.6655,2.68,2.665,2.6615,2.6636,2.663,2.6745,2.6758,2.6795,2.6977,2.6983,2.6831,2.6838,2.6843,2.6846,0,0,0,0,0,0,0,2.6381,2.6404,2.6629,2.6563,2.6564,2.6549,2.6563,2.6682,2.6708,2.6618,2.6613,2.663,2.6744,2.6785,2.6798,2.6985,2.6831,2.6841,2.6847,2.6851,2.7314,2.7319,0,0,0,0,0,0,2.6372,2.6396,2.6624,2.6633,2.6461,2.6559,2.6574,2.6631,2.6707,2.6713,2.6634,2.6626,2.6769,2.6785,2.6803,2.7009,2.6842,2.6852,2.6859,2.7308,2.7315,2.7321,0,0,0,0,0,0,2.6365,2.6393,2.6619,2.6513,2.6541,2.657,2.6635,2.6637,2.6677,2.6719,2.6724,2.6671,2.6765,2.6788,2.6928,2.7013,2.6857,2.6867,2.7301,2.731,2.7318,2.7423,0,0,0,0,0,0,2.6357,2.6391,2.6456,2.6515,2.6547,2.6741,2.664,2.6643,2.6695,2.6686,2.6755,2.6761,2.6763,2.6912,2.6939,2.7025,2.6875,2.7293,2.7305,2.7315,2.7412,2.7434,2.7453,0,0,0,0,0,2.6346,2.6482,2.646,2.6488,2.6628,2.6746,2.6764,2.6762,2.6702,2.6769,2.6795,2.6759,2.6999,2.6927,2.6956,2.7047,2.7288,2.7302,2.7314,2.7403,2.743,2.7452,0,0,0,0,0,0,2.6435,2.6489,2.6465,2.6624,2.6681,2.6734,2.6818,2.6791,2.6867,2.6856,2.6851,2.6867,2.7013,2.7044,2.6963,2.7217,2.7135,2.7154,2.7192,2.7218,2.7238,2.7228,2.6884,0,0,0,0,0,2.6472,2.6562,2.6605,2.6741,2.677,2.6789,2.6841,2.6833,2.6893,2.6917,2.6953,2.7014,2.7103,2.7162,2.7246,2.7415,2.7429,2.7492,2.7512,2.7529,2.7547,2.7638,2.7666,2.7364,2.7364,2.7364,0,0,2.6552,2.6593,2.665,2.676,2.6803,2.6897,2.681,2.6914,2.6983,2.6933,2.7067,2.7096,2.7163,2.7319,2.7389,2.7349,2.7632,2.7546,2.7558,2.7567,2.7654,2.7683,2.7708,2.7373,2.7372,2.737,0,0,2.6746,2.6785,2.6902,2.6946,2.701,2.7022,2.705,2.7107,2.7123,2.7257,2.7221,2.7305,2.7458,2.7507,2.7552,2.776,2.773,2.7788,2.7896,2.7985,2.8008,2.8029,2.8104,2.8131,2.7805,2.7805,2.7805,0,2.6837,2.6975,2.6966,2.7072,2.7121,2.7076,2.7195,2.7239,2.7329,2.7365,2.7318,2.7508,2.755,2.7715,2.7766,2.7804,2.7836,2.7781,2.8005,2.8026,2.8046,2.8117,2.8145,2.7812,2.7811,2.781,2.781,0,2.7085,2.7181,2.7268,2.7353,2.7412,2.7524,2.7533,2.7594,2.758,2.7597,2.7733,2.7782,2.7874,2.7912,2.7902,2.8077,2.805,2.8004,2.7922,2.8081,2.8148,2.8175,2.7821,2.7819,2.7817,2.7815,0,0,2.7341,2.7416,2.7449,2.7486,2.7553,2.7628,2.7737,2.7825,2.7877,2.794,2.8033,2.8162,2.8119,2.817,2.8164,2.8242,2.8404,2.8187,2.8188,2.8226,2.8599,2.8634,2.8666,2.8383,2.8388,2.8392,2.8594,0,2.7539,2.7729,2.7722,2.79,2.7988,2.7946,2.8041,2.8093,2.8111,2.8189,2.8209,2.8301,2.8238,2.8268,2.8343,2.8368,2.8479,2.8354,2.8471,2.8475,2.8456,2.87,2.8738,2.8926,2.862,2.8624,2.8627,0,2.7797,2.7865,2.805,2.8101,2.8139,2.8224,2.8303,2.8379,2.8436,2.8443,2.8499,2.848,2.8592,2.8504,2.8659,2.8574,2.8621,2.864,2.8648,2.866,2.8562,2.872,2.8986,2.9014,2.8668,2.8665,2.8662,0,2.7966,2.8104,2.8232,2.8265,2.8328,2.8389,2.8419,2.8471,2.8523,2.8593,2.8627,2.8709,2.8755,2.882,2.8824,2.876,2.898,2.8893,2.8991,2.8991,2.9041,2.9038,2.9319,2.9069,2.9069,2.9068,2.9068,0,2.8188,2.8304,2.8308,2.8388,2.8515,2.8507,2.8634,2.8658,2.8704,2.8788,2.8756,2.8836,2.8836,2.8917,2.8922,2.9049,2.907,2.908,2.908,2.9084,2.9082,2.9116,2.9103,2.9076,2.9074,2.9073,2.9071,0,2.84,2.8407,2.8544,2.8591,2.8606,2.8698,2.8739,2.8815,2.8828,2.8934,2.8959,2.8981,2.9075,2.9084,2.9195,2.9197,2.9351,2.9337,2.9331,2.9329,2.9427,2.9418,2.974,2.9782,2.9504,2.9507,2.9509,0,2.8543,2.863,2.8685,2.8737,2.8769,2.8855,2.8907,2.8901,2.8958,2.9028,2.9096,2.9186,2.9258,2.941,2.9437,2.9521,2.9509,2.9616,2.9522,2.9522,2.9512,2.9507,2.9516,2.9635,2.9638,2.9641,2.9643,0,2.8795,2.8793,2.8869,2.8945,2.9008,2.9069,2.9125,2.9171,2.9172,2.9237,2.9331,2.9386,2.9497,2.9587,2.9669,2.9701,2.9673,2.9671,2.9699,2.9704,2.9698,2.9703,2.9382,2.9665,2.9663,2.9661,2.966,2.9659,2.8977,2.9052,2.9101,2.9186,2.9227,2.928,2.9353,2.9374,2.9451,2.9539,2.9531,2.9636,2.969,2.9796,2.9834,2.9916,2.9881,2.992,2.993,2.9941,2.9951,2.9683,2.9931,2.993,2.993,2.9929,2.9929,0,2.9228,2.9257,2.9335,2.9413,2.948,2.9444,2.9504,2.9563,2.9654,2.9705,2.9776,2.9884,2.997,3.0002,3.0087,3.0147,3.0136,3.017,3.0166,3.0174,2.9977,2.9945,3.0177,3.0177,3.0177,3.0177,3.0177,3.0177,2.9367,2.9491,2.9495,2.964,2.9668,2.9768,2.9806,2.9855,2.9895,3.0016,3.0087,3.0106,3.015,3.0237,3.0315,3.0322,3.0355,3.0395,3.0397,3.0213,3.0188,3.0164,3.0134,3.0402,3.0402,3.0587,3.0588,3.059]},{"header":{"parameterUnit":"m.s-1","parameterCategory":1,"la1":30.2991,"la2":30.254,"lo1":-89.0895,"lo2":-89.0444,"dy":0.0017,"dx":0.0017,"nx":28,"ny":28,"refTime":"2024-08-11T21:00:00:Z","depth":0,"parameterNumber":3,"parameterNumberName":"V-component_of_WINDS"},"data":[0,0,0,0,0,0,0,0,0,0,0,0,0,0,0,0,0,0,0,0,0,0,0,0,0,0,0,0,0,0,0,0,0,0,0,0,0,0,0,0,0,0,0,0,0,0,0,0,0,0,0,0,0,0,0,0,0,0,3.7974,3.7975,0,3.8074,3.8075,3.8077,3.8028,3.8025,3.8022,3.802,3.8115,3.812,3.8125,0,0,0,0,0,0,0,0,0,0,0,0,0,3.7734,3.7739,3.7974,3.7976,3.7977,3.8074,3.8075,3.8077,3.8028,3.8025,3.8022,3.8019,3.8114,3.812,3.8126,0,0,0,0,0,0,0,0,0,0,0,0,0,3.7836,3.774,3.7974,3.7964,3.7965,3.8074,3.8076,3.8077,3.8029,3.8025,3.8021,3.8017,3.8112,3.8119,3.8126,3.8249,0,0,3.8149,3.8152,0,0,0,0,0,0,0,0,3.7831,3.7845,3.7965,3.7965,3.7966,3.8035,3.8026,3.8135,3.803,3.8004,3.802,3.8016,3.8091,3.81,3.8127,3.8253,3.8257,3.815,3.8154,3.8157,3.8159,0,0,0,0,0,0,0,3.7824,3.7841,3.8014,3.7966,3.7967,3.7953,3.7963,3.8046,3.8068,3.8006,3.8003,3.8016,3.8091,3.812,3.8129,3.8259,3.8149,3.8156,3.8161,3.8163,3.8489,3.8493,0,0,0,0,0,0,3.7818,3.7835,3.801,3.8017,3.7888,3.796,3.7972,3.8016,3.8067,3.8071,3.8019,3.8013,3.8109,3.812,3.8132,3.8278,3.8157,3.8164,3.8168,3.8485,3.849,3.8495,0,0,0,0,0,0,3.7813,3.7834,3.8006,3.7925,3.7946,3.7968,3.8019,3.802,3.805,3.8077,3.8079,3.8045,3.8107,3.8122,3.822,3.8281,3.8167,3.8174,3.848,3.8487,3.8492,3.8572,0,0,0,0,0,0,3.7806,3.7833,3.7881,3.7927,3.7951,3.8096,3.8023,3.8025,3.8063,3.8057,3.8102,3.8106,3.8105,3.821,3.8228,3.8289,3.818,3.8475,3.8483,3.849,3.8564,3.858,3.8594,0,0,0,0,0,3.7798,3.7898,3.7884,3.7905,3.8012,3.8099,3.8113,3.8111,3.8069,3.8116,3.8133,3.8104,3.8272,3.822,3.824,3.8304,3.8471,3.8481,3.849,3.8557,3.8577,3.8594,0,0,0,0,0,0,3.7857,3.7904,3.7889,3.8007,3.805,3.8091,3.8151,3.8132,3.8186,3.8178,3.8171,3.8182,3.8284,3.8304,3.8246,3.8425,3.8364,3.8378,3.8409,3.8428,3.8442,3.8435,3.8186,0,0,0,0,0,3.7884,3.7953,3.799,3.809,3.8113,3.8129,3.8166,3.8162,3.8205,3.8222,3.8246,3.8287,3.8349,3.8389,3.8447,3.8567,3.8575,3.862,3.8636,3.8648,3.866,3.8723,3.8743,3.8526,3.8526,3.8526,0,0,3.794,3.7974,3.8018,3.8103,3.8136,3.8205,3.8144,3.822,3.8271,3.8233,3.8328,3.8347,3.8392,3.8502,3.8551,3.8521,3.8722,3.866,3.8669,3.8675,3.8735,3.8755,3.8774,3.8532,3.8531,3.853,0,0,3.8077,3.8111,3.8199,3.8233,3.8284,3.8294,3.8315,3.8359,3.8371,3.8467,3.844,3.8499,3.8605,3.8638,3.8669,3.8819,3.8794,3.8838,3.8916,3.8978,3.8995,3.9011,3.9063,3.9082,3.885,3.885,3.885,0,3.814,3.8246,3.8245,3.8325,3.8362,3.8333,3.842,3.8453,3.8519,3.8544,3.8511,3.8644,3.8672,3.8788,3.8825,3.8851,3.8873,3.8833,3.8994,3.9009,3.9023,3.9073,3.9093,3.8855,3.8855,3.8854,3.8854,0,3.832,3.8394,3.8458,3.8526,3.857,3.8653,3.8662,3.8707,3.8699,3.8711,3.8809,3.8842,3.8906,3.8933,3.8924,3.9048,3.9028,3.8994,3.8933,3.9049,3.9095,3.9115,3.8862,3.8861,3.8859,3.8858,0,0,3.8497,3.8564,3.8587,3.8617,3.8671,3.8727,3.8807,3.8872,3.8911,3.8957,3.9023,3.9114,3.9083,3.9118,3.9113,3.9167,3.9283,3.9126,3.9127,3.9154,3.942,3.9445,3.9467,3.9267,3.9271,3.9274,3.9416,0,3.8638,3.8782,3.8783,3.8914,3.8981,3.8955,3.9024,3.9064,3.9078,3.9135,3.9148,3.9213,3.9168,3.9189,3.9242,3.9258,3.9336,3.9248,3.9326,3.9329,3.9316,3.9492,3.9518,3.9651,3.9434,3.9437,3.9439,0,3.8821,3.8876,3.9015,3.9059,3.9087,3.9151,3.921,3.9266,3.9309,3.9315,3.9354,3.9341,3.942,3.9357,3.9465,3.9405,3.9437,3.945,3.9455,3.9462,3.9391,3.9502,3.9693,3.9713,3.9468,3.9466,3.9464,0,3.8936,3.9044,3.9141,3.9167,3.9222,3.9266,3.929,3.933,3.9369,3.942,3.9445,3.9504,3.9536,3.958,3.9582,3.9536,3.9691,3.9628,3.9697,3.9697,3.973,3.9727,3.9928,3.9752,3.9752,3.9751,3.9751,0,3.9092,3.9178,3.9193,3.9253,3.9347,3.9347,3.9439,3.9459,3.9495,3.9556,3.9536,3.9593,3.9592,3.965,3.9652,3.974,3.9755,3.976,3.976,3.9762,3.9761,3.9782,3.9773,3.9756,3.9755,3.9754,3.9753,0,3.9236,3.925,3.9353,3.9397,3.9409,3.9477,3.9513,3.9568,3.958,3.9658,3.9676,3.9694,3.9761,3.9768,3.9844,3.9845,3.9952,3.9942,3.9939,3.9937,4.0004,3.9998,4.0224,4.0254,4.006,4.0061,4.0063,0,3.9334,3.94,3.9451,3.9492,3.9519,3.9585,3.9625,3.9627,3.9669,3.9723,3.9772,3.9837,3.9889,3.9997,4.0015,4.0074,4.0064,4.0139,4.0072,4.0073,4.0064,4.006,4.0066,4.0152,4.0154,4.0156,4.0157,0,3.9508,3.9512,3.9572,3.9635,3.9684,3.9732,3.9778,3.9812,3.9819,3.9867,3.9936,3.9977,4.0057,4.0121,4.0179,4.02,4.018,4.0179,4.0197,4.02,4.0195,4.0198,3.9973,4.0173,4.0171,4.017,4.0169,4.0169,3.9631,3.9688,3.9733,3.9801,3.9836,3.9879,3.9933,3.9953,4.0012,4.0078,4.0075,4.0151,4.0191,4.0267,4.0294,4.0351,4.0326,4.0353,4.036,4.0366,4.0373,4.0187,4.0362,4.0361,4.0361,4.0361,4.036,0,3.9803,3.9831,3.9893,3.9959,4.0011,3.999,4.0039,4.0084,4.0152,4.0193,4.0245,4.0324,4.0387,4.0411,4.0471,4.0513,4.0504,4.0528,4.0525,4.053,4.0393,4.037,4.0534,4.0534,4.0534,4.0534,4.0534,4.0533,3.9899,3.9994,4.0003,4.0114,4.0141,4.0217,4.0247,4.0286,4.0319,4.0409,4.0461,4.0477,4.0511,4.0573,4.0629,4.0634,4.0657,4.0685,4.0685,4.0557,4.0539,4.0523,4.0502,4.069,4.069,4.0817,4.0819,4.0819]}]]